Location: Mascot Post Office (historical)
(40.2645°N, 99.5462°W)
Time: 02:40:01
(UTC+00:00)

IRIDIUM 106 - Pass Details

Date: 14 July 2020
Orbit: 776 x 779 km, 86.4° (Epoch: 14 August)

Event Time Altitude Azimuth Distance (km) Brightness Sun altitude
Exits shadow 05:34:45 78° 217° (SW) 799 4.2 -26.1°
Maximum altitude 05:35:03 83° 272° (W) 790 4.2 -26.1°
Drops below altitude 10° 05:40:18 10° 1° (N) 2,339 7.7 -26.4°
Sets 05:42:40 0° 2° (N) 3,271 8.7 -26.5°
